Regional Weather Roundup
Issued by NWS

Home | Current Version | Previous Version | Text Only | Print | Product List | Glossary Off
Versions: 1 2 3 4 5 6 7 8 9 10 11 12 13 14 15 16 17 18 19 20 21 22 23 24 25 26 27 28 29 30 31 32 33 34 35 36 37 38 39 40 41 42 43 44 45 46 47 48 49 50

000
ASUS43 KDTX 291110
RWRMI
MICHIGAN HOURLY REGIONAL WEATHER ROUNDUP
NATIONAL WEATHER SERVICE DETROIT/PONTIAC MI
600 AM EST MON DEC 29 2014

NOTE: "FAIR" INDICATES FEW OR NO CLOUDS BELOW 12,000 FEET WITH NO
SIGNIFICANT WEATHER AND/OR OBSTRUCTION TO VISIBILITY.

MIZ047>049-052>055-059>063-066>070-074>076-081>083-291200-
SOUTHEAST LOWER MICHIGAN

CITY           SKY/WX    TMP DP  RH WIND       PRES   REMARKS
ADRIAN         PTCLDY    20  18  92 SW3       30.25S
ALMA           CLOUDY    24  15  67 NW6       30.26S
ANN ARBOR      PTCLDY    18  16  92 S3        30.23S
BAD AXE        CLOUDY    25  19  77 N8        30.24R
DETROIT CITY   PTCLDY    28  15  58 CALM      30.25R
DETROIT        MOCLDY    24  17  74 CALM      30.26R
FLINT          PTCLDY    26  15  63 N6        30.24S
GROSSE ILE     CLEAR     25  21  86 CALM      30.24S
HILLSDALE      MOCLDY    22  21  96 CALM      30.21S
HOWELL         PTCLDY    25  18  74 N3        30.22S

CITY           SKY/WX    TMP DP  RH WIND       PRES   REMARKS
JACKSON        MOCLDY    23  18  81 CALM      30.22S
LAMBERTVILLE   CLEAR     21  19  93 CALM      30.26R
LANSING        CLOUDY    26  17  68 N8        30.24F
LAPEER         NOT AVBL
MASON          MOCLDY    26  19  76 N5        30.23S
MONROE         CLEAR     21  21 100 CALM      30.25R
MT. CLEMENS    PTCLDY    26  15  64 NW6       30.23R
PONTIAC        MOCLDY    24  14  65 N7        30.21R
PORT HOPE        N/A     27  16  63 NW12      30.22R
PORT HURON     MOCLDY    27  16  63 NW7       30.24R
TRI CITIES     CLOUDY    26  18  71 N9        30.26R
YPSILANTI      PTCLDY    26  18  71 CALM      30.25R
$$
MIZ043>046-050>051-056>058-064>065-071>073-077>080-291200-
SOUTHWEST LOWER MICHIGAN

CITY           SKY/WX    TMP DP  RH WIND       PRES   REMARKS
BATTLE CREEK   CLOUDY    29  21  72 CALM      30.24R
BENTON HARBOR  CLOUDY    30  23  75 VRB5      30.26R
BIG RAPIDS     MOCLDY    21  16  79 N5        30.25S
COLDWATER      MOCLDY    22  21  95 MISG      30.23R
HOLLAND        CLOUDY    29  16  58 N9        30.28R
GRAND RAPIDS   CLOUDY    26  16  65 N10       30.26S
KALAMAZOO      CLOUDY    28  21  75 N5        30.25R
MARSHALL       CLOUDY    24  21  87 CALM      30.23R
MUSKEGON       MOCLDY    26  13  57 N8        30.29R
$$
MIZ016>042-291200-
NORTHERN LOWER MICHIGAN

CITY           SKY/WX    TMP DP  RH WIND       PRES   REMARKS
ALPENA         CLOUDY    20   9  62 W7        30.25S
BEAVER ISLAND  MOCLDY    19  11  69 NW7       30.27R
BELLAIRE       FLURRIES  22  13  68 CALM      30.28R
CADILLAC       MOCLDY    16  10  76 CALM      30.23S
CHARLEVOIX     CLOUDY    22  13  67 NW9G16    30.29R
FRANKFORT      CLOUDY    21  13  71 NW6       30.30R
GAYLORD        CLOUDY    17  12  80 W6        30.21R
GRAYLING       CLOUDY    18  12  77 W5        30.24S
HARBOR SPRINGS FLURRIES  21  11  67 NW3       30.25S
HOUGHTON LAKE  MOCLDY    17   9  70 NW6       30.24R
MANISTEE       MOCLDY    21   9  58 N5        30.30S
OSCODA         MOCLDY    21  11  67 NW8       30.25S
PELLSTON       CLOUDY    21  12  68 NW9       30.25S
TRAVERSE CITY  CLOUDY    22  11  62 W6        30.28R
$$
MIZ007>008-015-291200-
EASTERN UPPER MICHIGAN

CITY           SKY/WX    TMP DP  RH WIND       PRES   REMARKS
KINROSS        MOCLDY    12  12 100 W12       30.20S WCI  -2
MACKINAC ISLAN CLOUDY    20  12  71 W9G20     30.23R
NEWBERRY       MOCLDY    10   9  94 SW8       30.22S
S. S. MARIE    LGT SNOW  17  13  84 NE6       30.21R FOG
$$
MIZ004>006-011>014-085-291200-
CENTRAL UPPER MICHIGAN

CITY           SKY/WX    TMP DP  RH WIND       PRES   REMARKS
MANISTIQUE     FLURRIES  12   9  86 W10       30.27S WCI  -1
ESCANABA       MOCLDY     3   0  85 W7        30.31R
MENOMINEE      PTCLDY    10   3  72 NW6       30.34S
SAWYER-GWINN   CLOUDY    -8 -13  80 CALM      30.25R
$$
MIZ001>003-009>011-084-291200-
WESTERN UPPER MICHIGAN

CITY           SKY/WX    TMP DP  RH WIND       PRES   REMARKS
IRON MOUNTAIN    N/A      0  -5  79 CALM      30.28R
HOUGHTON       LGT SNOW   7   2  80 NW12      30.30R WCI  -8
COPPER HARBOR    N/A     13   7  77 N20       30.31R WCI  -5
IRONWOOD       CLOUDY     5   1  85 W12       30.31R WCI -11
$$

ABBREVIATIONS USED IN REMARKS
   TC - TEMPERATURE IN CELSIUS
  WCI - WIND CHILL INDEX
   HX - HEAT INDEX
  VSB - VISIBILITY




USA.gov is the U.S. government's official web portal to all federal, state and local government web resources and services.